Regional Weather Roundup
Issued by NWS

Home | Current Version | Previous Version | Text Only | Print | Product List | Glossary On
Versions: 1 2 3 4 5 6 7 8 9 10 11 12 13 14 15 16 17 18 19 20 21 22 23 24 25 26 27 28 29 30 31 32 33 34 35 36 37 38 39 40 41 42 43 44 45 46 47 48 49 50
270
ASUS42 KFFC 301910
RWRGA
WEATHER ROUNDUP FOR GEORGIA
NATIONAL WEATHER SERVICE PEACHTREE CITY GA
300 PM EDT THU MAR 30 2017

NOTE: "FAIR" INDICATES FEW OR NO CLOUDS BELOW 12,000 FEET WITH NO
SIGNIFICANT WEATHER AND/OR OBSTRUCTIONS TO VISIBILITY.

* = USE WITH CAUTION. THE STATIONS MARKED WITH AN ASTERISK MAY NOT
REPORT WEATHER SUCH AS PRECIPITATION, FOG, OR THUNDER AND ARE NOT
QUALITY CONTROLLED BY NWS.

THE REMARK "TC" DENOTES TEMPERATURE READING IN DEGREES CELSIUS.

GAZ001>058-302000-
NORTH GEORGIA

CITY           SKY/WX    TMP DP  RH WIND       PRES   REMARKS
ATLANTA        PTSUNNY   79  50  36 S16G25    29.89F
ATHENS         MOSUNNY   79  57  46 VRB5      29.92F
CHAMBLEE       MOSUNNY   78  53  41 S12G22    29.89F
PEACHTREE CITY MOSUNNY   80  47  31 SW8G21    29.89F
ROME           MOSUNNY   81  52  36 S18G28    29.80F
WEST ATLANTA   MOSUNNY   80  48  32 S12G22    29.87F
GAINESVILLE    MOSUNNY   75  57  53 E10G17    29.94F
CARTERSVILLE   MOSUNNY   80  47  31 S12G23    29.85F


CITY           SKY/WX    TMP DP  RH WIND       PRES   REMARKS
DALTON*        CLOUDY    79  48  34 SE21G29   29.80F
LAWRENCEVILLE* MOSUNNY   77  55  47 SW14      29.92F
MARIETTA       CLOUDY    80  50  35 S15G22    29.87F
KENNESAW*      MOSUNNY   79  52  38 S12G20    29.84F
CANTON*        MOSUNNY   79  37  22 SE12G20   29.89F
$$

GAZ059>098-102>109-302000-
CENTRAL GEORGIA

CITY           SKY/WX    TMP DP  RH WIND       PRES   REMARKS
AUGUSTA-BUSH   PTSUNNY   78  64  61 S12       29.92F
AUGUSTA-DANIEL PTSUNNY   79  61  53 S10       29.94F
COLUMBUS       MOSUNNY   82  55  39 SW12      29.88F
MACON          PTSUNNY   79  53  40 S13       29.93F
ROBINS AFB     MOSUNNY   81  55  40 S8        29.92F


CITY           SKY/WX    TMP DP  RH WIND       PRES   REMARKS
LAGRANGE*      PTSUNNY   80  61  51 S14       29.89F
SYLVANIA*      CLOUDY   N/A N/A N/A S3        29.98F
MILLEDGEVILLE* MOSUNNY   82  59  44 SW5       29.92F
$$

GAZ099>101-110>166-302000-
SOUTH GEORGIA

CITY           SKY/WX    TMP DP  RH WIND       PRES   REMARKS
SAVANNAH       LGT RAIN  73  63  70 CALM      29.96F
VALDOSTA       PTSUNNY   83  56  39 SW5       29.92F
ALMA           PTSUNNY   85  56  37 S5        29.92F
ST SIMONS      SUNNY     77  65  66 SE10      29.94F
FT STEWART     CLOUDY    78  64  62 NE7       29.92F
ALBANY         MOSUNNY   84  57  39 SW9G18    29.93F
HUNTER AFB     CLOUDY    75  68  80 E3        29.94F
MOODY AFB      PTSUNNY   86  54  33 SW10      29.91F
BRUNSWICK      SUNNY     81  68  65 SE13      29.94F


CITY           SKY/WX    TMP DP  RH WIND       PRES   REMARKS
BAINBRIDGE*    MOSUNNY   81  59  47 S7        29.92F
MOULTRIE*      MOSUNNY   82  55  39 S7        29.94F
VIDALIA*       PTSUNNY   82  61  47 SE5       29.94F
WAYCROSS*      MOSUNNY   90  58  34 W7        29.92F
DOUGLAS*       MOSUNNY   86  52  30 W9        29.94F
$$




USA.gov is the U.S. government's official web portal to all federal, state and local government web resources and services.